Theta_e
324 323 324 322 320 320 319 319 317 316 319 322 323 324 325 326 327 325 324 323 322 321 322 322 322 322 322 321 321 322 322 321 322 323 324 326 327 327 327 327 322 317 315 313 312 311 311 313 313 311 312 315 317 318 318 318 318 319 320 320 319 320 320 320 320 318 318 319 318 318 320 320 318 317 316 316 317 318 318 318 319 319 318 318 315 325 336 331
324 323 323 322 320 320 319 318 318 316 316 319 322 323 323 323 326 328 327 325 324 322 322 322 322 322 322 321 321 321 321 322 322 322 324 326 327 328 328 327 322 315 315 313 311 311 311 313 313 311 313 317 317 318 319 318 318 319 321 319 320 321 320 319 320 318 317 319 319 318 320 320 319 318 316 317 318 318 318 318 318 319 319 318 314 319 332 331
324 324 323 322 320 319 318 317 317 316 315 316 320 323 322 322 324 327 328 327 325 323 323 322 322 322 322 322 321 322 323 323 323 323 325 327 328 328 326 325 322 317 316 313 311 311 311 312 313 312 313 316 317 318 319 319 318 319 321 320 321 321 318 317 318 317 317 319 319 319 319 320 319 318 317 317 319 318 318 318 318 320 321 319 315 317 325 328
324 324 323 321 320 320 318 317 317 316 314 314 317 321 322 322 323 326 328 328 326 325 324 324 324 324 324 322 322 323 323 323 324 324 326 327 328 328 324 321 319 316 316 313 311 310 310 312 312 312 314 316 318 318 318 318 318 319 319 319 320 320 318 316 316 315 315 317 319 319 319 319 319 317 317 318 318 318 317 318 318 318 321 320 316 316 318 324
324 323 322 321 320 320 319 317 317 316 314 313 316 320 322 322 322 324 327 328 328 327 326 326 326 326 325 323 323 323 323 325 324 324 326 326 328 327 322 320 317 313 314 312 310 310 310 312 312 311 314 316 317 317 318 318 318 319 318 318 318 319 318 315 314 314 314 317 318 319 318 318 318 316 317 318 317 318 317 317 319 317 320 321 316 315 317 320
323 323 322 321 320 320 319 317 317 316 314 314 315 318 321 321 321 323 325 327 328 327 326 326 325 325 324 322 323 323 324 326 321 320 326 326 327 325 320 320 318 313 312 311 310 310 311 312 312 312 314 316 317 317 317 318 317 318 318 317 316 316 317 315 313 313 313 316 317 318 319 317 317 317 317 318 317 317 317 317 318 317 320 321 317 315 317 317
323 323 321 320 320 320 319 317 316 316 315 315 315 318 320 321 321 322 325 326 327 326 325 325 324 323 322 322 325 322 323 325 316 316 325 326 326 322 319 319 317 314 312 311 310 310 312 312 312 312 314 315 316 317 317 317 316 317 318 317 315 314 315 313 313 313 313 315 316 317 317 317 317 317 317 317 317 316 316 316 316 316 318 320 317 316 316 316
323 323 321 320 320 320 319 317 316 316 315 315 316 317 318 320 321 321 323 325 325 325 325 324 323 322 322 323 324 320 321 325 316 313 321 325 325 321 320 320 319 315 311 311 310 311 313 312 312 312 314 314 316 317 317 317 316 317 317 316 315 313 313 312 312 312 312 313 314 316 316 317 316 316 316 316 316 316 315 315 315 315 316 317 316 316 316 316
323 322 321 320 320 319 319 317 316 316 316 316 316 316 317 318 319 320 322 325 325 325 325 324 323 322 323 325 324 320 322 324 315 312 316 321 324 322 319 321 321 315 311 311 309 311 313 312 312 312 314 314 314 316 316 317 317 317 317 316 315 313 312 311 312 312 312 313 313 315 316 316 314 314 315 316 316 316 316 315 314 314 314 316 315 315 316 316
323 322 321 320 320 319 319 317 315 316 315 316 316 315 316 318 318 319 321 324 324 325 324 323 323 322 324 325 323 322 322 322 315 311 314 317 321 323 318 320 321 314 310 310 309 312 313 312 312 313 313 313 314 314 316 316 316 317 317 316 315 313 312 312 313 312 312 313 312 315 316 314 313 313 316 316 316 315 315 315 314 314 314 315 316 315 314 316
323 321 320 320 319 320 318 317 315 315 315 315 315 315 316 317 317 317 320 324 324 323 323 323 322 323 325 324 323 322 319 320 317 312 312 315 320 322 319 320 319 312 310 310 310 312 312 312 312 312 313 313 313 313 314 314 315 316 316 315 314 314 313 313 313 313 313 313 312 315 315 314 313 313 316 316 315 315 315 315 314 314 315 315 315 315 314 314
323 321 320 320 319 319 318 317 316 315 315 314 314 315 315 316 317 317 320 323 324 323 323 323 323 323 324 322 322 320 316 316 315 312 312 313 319 322 321 319 314 310 310 309 310 312 312 312 312 312 312 312 313 313 314 314 314 316 316 316 315 315 315 314 314 313 314 314 312 314 314 314 314 314 316 315 314 314 314 316 315 314 316 317 315 314 314 314
322 321 320 319 319 319 318 317 315 315 314 313 314 316 316 316 316 316 319 323 324 323 323 323 323 324 322 320 321 319 313 314 313 312 312 311 316 319 317 313 311 310 310 310 312 313 311 311 311 313 312 312 314 313 313 313 313 315 316 316 315 315 315 315 314 313 314 314 312 314 314 314 316 315 316 315 314 314 314 316 316 314 316 318 316 314 314 314
321 320 319 319 319 318 318 317 315 314 313 313 314 315 316 316 316 316 318 323 324 324 324 323 324 323 320 318 319 317 313 313 315 313 313 312 313 315 313 310 310 311 311 312 313 312 311 311 311 313 312 313 313 313 313 313 313 314 315 316 316 315 315 315 315 314 315 313 312 313 313 315 317 316 315 314 313 314 315 316 316 316 316 317 315 314 314 314
320 320 319 319 318 317 317 316 315 314 313 313 314 315 315 315 315 316 318 322 324 324 323 323 323 319 318 317 314 316 315 313 315 314 312 311 311 314 312 310 312 312 312 313 312 311 311 311 312 312 312 312 313 313 314 314 314 315 314 314 316 315 315 315 315 315 315 313 313 313 313 316 317 316 314 313 313 313 315 315 315 317 317 316 315 313 314 314
320 319 318 318 317 317 316 315 314 313 312 313 314 314 315 314 315 316 318 320 322 324 322 320 320 315 316 317 312 314 315 312 314 314 312 311 311 312 311 311 313 312 312 312 311 311 311 311 312 312 312 312 312 313 314 314 314 315 314 313 315 316 315 315 314 315 316 314 313 313 314 316 316 314 313 313 313 313 314 316 316 316 317 317 316 314 313 313
319 319 318 317 317 316 315 315 314 313 312 314 315 314 314 314 314 315 317 318 320 321 319 316 314 312 314 315 312 313 312 311 314 314 312 311 312 312 312 312 312 311 311 311 311 311 311 312 312 312 312 312 313 314 314 313 312 314 314 314 316 316 315 315 314 315 315 314 314 313 313 316 316 315 312 312 313 314 314 315 316 316 316 317 317 316 314 314
319 318 318 317 316 316 315 314 313 312 313 314 314 313 312 313 314 315 316 317 317 315 314 312 310 313 316 313 312 313 312 311 313 314 314 312 312 312 312 313 312 312 312 311 312 312 311 312 312 312 313 312 313 314 313 313 313 314 313 314 316 315 315 315 314 314 314 314 315 314 314 314 316 316 314 312 313 314 314 315 316 316 316 316 316 316 315 314
318 318 317 317 316 315 314 312 311 313 314 313 313 312 312 313 313 315 316 315 314 313 313 312 311 315 317 313 312 313 312 311 311 313 314 312 312 312 312 313 312 312 312 312 312 312 313 313 312 313 313 312 313 314 314 314 315 315 314 314 314 314 314 315 314 313 313 314 315 315 315 315 316 316 316 314 313 314 314 315 315 315 316 316 316 316 315 314
318 317 317 316 316 315 313 312 311 314 314 312 311 311 312 313 314 314 314 314 313 313 314 312 312 313 312 312 313 312 311 311 310 311 313 313 312 312 312 312 313 313 312 313 313 313 313 313 312 313 313 313 313 313 314 314 315 316 315 314 314 314 313 314 314 312 313 314 315 315 316 316 316 317 317 316 314 314 315 315 315 315 315 315 315 316 315 314
318 317 317 316 315 314 313 311 312 314 313 311 311 312 313 314 314 313 314 314 312 311 311 311 312 312 310 311 313 312 311 310 310 311 312 312 312 312 312 312 313 312 312 314 313 312 313 313 313 313 313 313 313 314 313 313 314 314 315 314 314 315 314 313 313 312 312 313 315 316 315 316 316 316 317 317 315 315 316 315 316 316 316 316 316 316 315 314
317 317 316 316 314 313 313 311 312 313 311 311 312 313 312 312 312 312 313 313 311 309 310 311 311 310 310 310 311 312 311 311 311 311 311 312 312 312 312 312 312 312 313 313 312 312 312 313 313 313 314 313 313 313 313 313 313 313 314 314 314 315 314 313 313 312 312 312 315 316 315 315 316 316 317 317 317 316 316 316 316 316 316 316 317 316 316 316
317 317 316 315 314 313 312 311 311 312 310 312 313 311 310 312 311 310 311 311 309 309 310 310 311 311 310 310 311 311 312 312 312 312 311 311 312 312 312 313 312 313 312 312 312 313 313 312 313 313 313 312 312 312 312 313 313 313 314 313 314 316 314 313 313 312 311 312 314 315 315 315 316 316 316 317 317 317 317 316 316 316 316 316 317 317 317 317
317 317 315 314 314 313 311 310 311 311 310 312 312 310 310 311 309 309 310 310 309 309 310 309 311 311 310 311 311 311 312 312 312 312 311 311 312 312 313 313 313 313 312 312 312 313 313 310 309 311 313 312 312 312 312 312 312 314 315 314 315 317 315 314 314 312 312 312 313 314 313 314 315 315 316 317 317 317 317 317 317 317 316 316 316 316 316 316
317 316 315 314 313 312 310 310 311 310 311 312 311 309 310 309 308 310 310 310 309 309 309 309 311 312 311 311 311 311 313 312 313 312 310 312 313 312 313 313 313 313 312 312 312 313 313 307 306 311 312 312 312 312 313 313 312 313 316 315 315 315 315 314 314 313 312 313 314 314 311 311 315 315 316 317 317 317 317 317 317 317 316 315 315 315 314 314
316 315 314 313 313 311 310 312 312 310 311 311 309 308 309 308 308 311 310 310 310 309 308 309 310 311 311 312 311 312 312 312 313 312 311 311 312 312 312 312 312 312 313 312 312 313 310 305 307 312 312 313 314 312 313 314 312 312 316 317 314 315 316 315 315 314 312 313 314 314 312 311 313 316 317 317 316 316 317 317 317 316 316 316 315 314 313 313
315 314 314 313 312 310 311 313 311 310 312 310 308 309 309 308 309 312 311 310 310 310 309 309 310 311 312 312 312 311 311 312 312 311 311 311 311 312 312 311 311 312 313 312 312 312 308 306 310 313 312 314 314 312 314 314 312 314 318 318 314 315 317 316 316 315 314 315 314 313 315 313 312 315 318 316 315 316 316 316 317 317 317 317 316 315 314 314
315 314 314 313 312 310 312 313 311 311 311 309 308 309 308 308 310 311 311 309 310 311 309 309 310 311 312 312 312 312 312 312 312 312 311 311 311 311 312 312 312 312 312 312 313 311 310 311 313 313 313 314 313 314 316 314 313 316 317 316 315 316 317 317 316 315 315 315 313 314 316 312 311 314 317 316 315 315 316 316 317 317 317 317 317 316 315 314
314 314 314 313 311 311 312 312 310 310 309 308 309 309 308 309 310 311 311 310 310 310 309 309 309 310 312 312 312 312 312 312 312 312 311 310 311 310 311 313 312 311 310 312 314 312 311 311 311 312 314 314 313 313 315 317 315 315 314 314 316 316 317 317 316 315 315 313 312 315 316 312 311 313 315 316 315 315 316 316 317 318 318 317 316 315 315 314
314 314 313 312 311 311 312 311 310 309 308 308 309 308 308 309 309 311 313 312 311 310 309 309 309 311 312 311 312 312 312 313 312 311 311 310 310 310 311 312 312 312 311 313 314 311 309 308 309 312 312 311 310 309 312 315 314 314 315 315 315 315 315 315 315 314 314 313 313 315 316 314 312 312 315 317 316 315 317 316 317 318 317 317 315 314 314 313
313 313 313 312 311 311 311 311 310 307 308 309 309 307 308 309 309 311 313 313 312 310 309 309 309 311 311 311 312 311 312 312 312 311 311 310 310 310 311 312 312 313 312 313 314 312 310 309 310 311 308 309 311 310 310 312 312 315 316 314 314 313 314 313 313 314 313 313 313 312 314 315 312 312 315 317 316 315 316 315 315 316 316 317 315 313 313 313
313 313 312 311 311 311 311 310 308 307 309 309 308 308 309 310 310 312 312 311 311 310 310 310 310 310 310 311 312 311 312 312 312 311 311 310 310 310 311 312 312 313 312 312 314 314 313 311 311 311 308 310 313 312 310 310 312 314 314 313 313 313 314 314 313 314 313 313 311 310 313 315 313 313 314 316 316 315 314 314 314 316 317 317 315 314 313 314
313 312 312 311 311 310 310 308 307 308 310 308 308 309 310 311 312 312 311 310 311 311 311 311 311 310 311 311 312 312 312 312 312 312 311 311 311 311 312 313 313 314 313 313 314 313 313 312 311 312 310 310 313 313 311 310 311 313 314 313 313 313 314 315 314 314 314 312 309 310 313 313 313 314 315 316 315 315 314 313 314 315 315 315 315 314 313 314
313 312 312 311 311 309 309 308 307 309 309 308 309 310 311 313 313 313 311 310 311 311 311 312 311 311 311 311 312 312 313 313 312 312 312 312 312 311 312 312 313 315 314 314 314 313 314 313 312 313 312 311 312 313 314 314 312 313 316 315 313 314 314 315 315 314 315 313 310 310 312 313 312 313 315 315 314 314 313 312 312 312 312 312 313 313 313 314
313 312 312 311 310 309 308 307 307 309 309 309 310 310 312 314 312 313 312 311 311 311 311 312 311 311 311 311 312 312 313 314 312 312 313 312 312 312 312 312 312 314 314 314 314 313 314 313 312 310 310 311 313 313 313 315 313 313 315 315 314 315 314 313 313 313 313 314 312 311 312 313 314 315 315 315 314 313 312 312 312 312 312 311 312 313 313 314
313 312 312 311 310 309 308 307 308 309 308 309 311 311 313 313 313 314 313 310 311 311 311 311 312 312 311 312 313 312 313 314 313 313 313 313 313 313 313 312 313 313 313 314 314 313 313 313 312 309 309 309 311 311 312 313 314 314 313 313 314 315 314 312 311 310 310 313 314 313 312 313 313 315 315 316 315 314 313 312 312 312 313 312 312 313 313 314
313 313 312 311 310 309 308 307 308 309 309 310 311 312 313 313 313 313 311 310 311 311 311 312 312 312 311 313 313 312 313 314 313 313 313 313 313 313 313 313 313 312 313 314 313 314 314 313 311 312 313 310 306 309 311 309 311 313 312 313 314 314 314 311 312 312 311 312 313 312 313 312 312 314 315 315 316 315 314 313 312 313 314 313 313 312 313 314
313 312 312 311 310 309 308 307 308 309 310 311 311 312 314 314 313 311 310 311 311 311 312 313 313 312 312 313 312 312 313 313 313 313 314 313 313 314 313 313 313 312 313 313 313 315 315 314 311 311 313 311 308 310 312 309 309 311 311 312 313 314 314 312 312 313 313 313 313 312 312 311 311 313 314 314 314 314 314 313 312 313 314 313 313 312 313 314
313 312 313 312 310 309 308 307 308 310 311 311 311 313 314 313 312 311 311 311 311 312 312 313 313 312 313 312 312 312 312 312 313 314 314 314 313 314 314 313 313 312 312 312 313 315 315 314 313 310 310 311 310 311 313 312 311 310 310 311 313 315 314 312 313 313 313 313 313 312 311 311 313 314 314 314 314 314 315 315 314 313 314 314 314 313 313 314
313 313 313 312 311 310 309 308 309 310 311 311 311 312 314 313 311 311 311 311 312 312 313 313 313 313 314 313 312 313 312 312 314 314 314 314 313 313 313 313 313 312 312 313 313 314 313 312 314 311 310 311 311 311 313 314 312 310 310 311 312 312 312 312 313 312 312 313 312 313 312 311 314 315 314 314 315 314 315 315 315 315 315 314 314 313 313 314
313 314 313 312 311 310 310 310 310 311 311 311 311 313 314 311 310 312 313 312 312 311 312 314 313 313 314 313 312 313 312 313 313 313 313 314 313 312 313 313 314 313 312 312 312 314 311 311 314 312 311 312 313 312 311 313 314 312 312 312 312 313 312 313 314 313 312 312 311 312 312 312 314 314 314 314 314 313 313 312 313 314 313 312 312 312 313 314
314 314 313 312 311 310 310 310 310 311 312 312 312 312 312 310 310 312 312 312 313 311 312 314 314 313 315 313 313 313 312 313 314 313 314 314 313 313 313 314 314 313 312 312 313 314 312 313 314 313 312 312 312 310 307 308 312 312 311 313 313 313 313 313 314 313 311 310 310 311 312 313 314 313 312 313 312 311 310 309 310 311 310 310 311 312 313 314
313 313 313 312 311 310 311 311 311 312 312 312 311 312 311 311 311 312 312 312 313 313 312 314 314 314 315 314 314 314 312 313 314 314 314 314 314 313 313 313 313 312 312 312 313 312 312 315 315 313 312 311 310 309 308 308 312 312 311 312 313 313 315 314 314 313 313 311 310 311 312 314 316 314 310 310 310 309 308 307 308 309 309 309 311 312 313 314
310 310 311 311 310 310 311 311 311 312 312 311 311 311 311 312 312 312 311 311 312 312 312 313 314 313 314 314 314 314 313 313 314 314 314 315 313 312 312 312 312 312 312 312 312 311 312 314 315 314 314 313 312 312 311 311 311 311 312 313 313 314 316 314 312 312 313 314 313 312 313 314 314 312 310 310 311 311 310 309 308 308 309 310 311 311 312 313
310 310 309 310 310 311 312 312 312 312 312 311 311 310 310 311 312 312 312 312 312 312 312 313 313 313 313 314 313 314 313 313 314 314 314 315 313 311 312 311 311 312 312 312 311 312 314 316 315 314 315 315 314 314 314 314 312 311 313 315 314 314 314 313 312 312 313 316 316 313 313 313 313 311 310 311 312 312 311 310 309 308 309 310 310 311 312 312
308 309 309 309 310 311 312 312 312 311 311 311 311 311 309 310 310 310 312 313 313 313 313 313 313 313 313 313 313 314 313 314 315 314 314 314 312 311 312 312 312 312 312 312 311 312 315 317 315 313 314 314 314 315 316 316 315 313 315 316 315 314 314 314 314 313 314 315 316 314 314 314 313 312 311 311 312 312 312 311 310 310 310 310 310 311 312 312
305 307 308 309 310 311 310 311 312 311 311 310 311 311 310 310 309 309 311 313 312 313 313 313 313 313 313 313 314 314 314 315 315 314 314 314 312 310 310 311 312 311 310 311 312 312 313 314 314 314 314 314 313 315 317 317 316 315 316 316 315 314 315 315 314 314 315 315 315 315 316 315 314 313 312 312 313 314 314 312 312 312 311 311 310 311 312 312
303 304 304 307 309 310 310 311 312 312 311 310 311 311 311 310 310 309 310 311 312 313 313 312 313 313 313 314 314 314 314 315 314 314 315 314 312 310 309 310 311 310 309 312 313 312 312 313 314 314 314 313 314 315 317 316 315 316 316 315 315 314 314 315 314 314 315 316 315 315 316 316 315 313 313 313 314 315 314 313 312 312 312 311 311 311 312 312
302 302 303 305 307 309 311 311 311 311 311 310 311 311 310 310 310 310 310 311 311 312 312 312 312 313 313 314 314 314 315 315 314 314 315 314 312 311 310 310 310 309 310 312 311 312 312 313 314 314 313 313 315 317 318 317 316 316 316 316 317 316 314 314 314 314 314 315 315 315 316 316 315 314 314 314 314 314 313 311 311 311 311 311 311 311 312 312
302 302 303 304 305 307 310 312 311 311 311 310 311 311 310 310 310 311 312 312 311 311 313 313 312 313 314 314 314 314 315 315 315 314 314 313 312 311 311 311 310 309 310 312 312 312 312 314 315 314 313 314 315 316 316 316 316 315 316 317 318 317 315 315 314 314 314 315 315 315 316 316 315 315 315 314 313 312 311 310 310 310 311 311 311 311 311 312
302 302 302 304 306 307 310 311 312 312 311 310 310 311 310 310 310 311 312 312 312 312 313 313 313 313 315 314 314 315 315 315 315 315 313 313 313 312 312 313 311 310 311 312 313 312 311 312 313 312 312 313 314 314 314 313 312 312 314 317 318 317 316 315 314 314 314 314 315 316 316 315 314 315 316 314 312 311 311 311 311 311 311 311 310 311 311 312
302 302 302 304 306 307 309 311 312 312 311 310 310 311 311 310 311 311 311 311 313 314 313 313 314 314 315 315 314 315 315 314 315 315 313 312 313 311 311 311 310 310 311 311 312 311 311 311 312 312 313 314 315 314 313 312 311 311 312 314 316 316 315 314 314 313 313 314 315 315 314 314 314 314 315 315 313 312 311 311 312 312 311 311 311 311 312 313
Wind_Speed
47 43 41 40 40 37 34 34 37 42 45 44 43 42 40 40 40 42 43 41 40 39 36 35 32 29 27 25 26 26 24 24 25 28 28 24 21 18 15 18 20 15 16 14 8 6 7 8 7 6 3 3 5 5 8 8 7 5 4 6 5 6 4 4 6 4 3 7 11 14 18 13 10 12 7 7 7 4 8 9 7 10 11 6 6 13 16 19
47 44 40 39 40 37 35 35 36 39 43 44 43 42 39 37 35 38 41 42 40 39 37 35 34 31 28 23 22 23 24 25 27 30 29 22 19 18 15 19 22 15 15 13 10 8 8 9 7 5 4 6 7 6 8 6 7 6 3 5 6 4 2 3 1 4 2 6 13 14 17 13 10 14 11 9 9 8 8 9 9 9 10 10 7 13 19 20
46 45 41 39 39 37 35 35 35 36 41 44 44 42 39 36 34 35 37 40 39 38 37 35 34 32 29 25 21 20 22 22 26 31 28 21 18 18 15 19 22 17 18 15 10 9 10 9 6 5 6 7 8 7 8 6 7 5 3 6 4 3 4 4 3 4 3 4 13 14 14 12 10 15 13 10 10 11 10 10 12 12 12 13 11 14 21 21
47 46 42 38 36 36 36 35 34 36 39 42 44 43 39 36 35 35 35 36 37 35 35 34 33 32 30 27 21 19 20 16 24 33 27 20 20 17 17 20 17 15 22 17 10 10 11 10 8 6 7 8 8 8 8 8 6 4 4 3 1 3 4 4 4 5 3 4 10 14 13 10 10 12 12 11 9 9 12 12 13 14 14 16 15 15 20 21
47 46 43 38 36 35 36 36 35 36 38 41 43 43 40 37 36 36 35 34 33 32 31 30 30 29 28 26 22 19 17 7 15 31 26 21 21 18 21 24 16 11 19 18 10 10 11 10 9 5 7 8 7 8 9 10 7 4 4 2 5 2 2 5 4 6 6 5 9 13 13 11 9 9 12 14 9 4 8 12 12 12 14 17 17 16 19 23
46 45 43 39 36 34 35 36 35 35 38 41 42 42 40 39 38 36 36 32 30 30 28 28 27 26 26 25 23 19 17 6 4 17 25 23 22 21 22 24 20 13 16 17 12 11 11 12 10 6 8 8 8 9 8 11 9 5 3 2 3 4 3 4 4 6 6 5 9 11 11 11 10 10 12 15 11 3 5 10 12 10 12 16 17 16 18 23
48 45 43 40 38 35 35 35 34 35 37 39 41 42 40 39 39 37 36 31 29 29 27 27 26 27 28 25 21 17 20 14 1 5 21 25 24 25 23 24 23 17 17 16 13 12 11 12 10 8 8 6 8 9 7 9 10 7 2 5 2 4 3 3 3 8 6 3 6 8 9 11 12 10 10 15 13 4 3 8 13 14 13 15 16 16 16 18
49 46 44 41 39 36 35 34 34 35 36 38 39 40 40 39 39 38 36 31 29 29 27 28 28 29 28 23 19 15 20 22 6 3 17 25 28 31 28 28 24 17 19 16 14 14 11 12 12 9 7 6 7 7 8 8 9 10 4 5 4 4 3 3 3 7 6 3 4 6 8 9 10 6 6 15 14 10 10 6 9 14 16 15 15 17 16 16
49 47 45 42 39 37 35 33 33 35 36 38 38 39 39 39 38 37 35 31 30 30 29 29 29 28 25 21 17 12 19 24 11 5 16 22 28 35 29 29 26 19 20 18 15 14 13 13 13 10 6 7 8 4 7 8 7 9 6 7 6 4 4 3 4 6 5 4 4 7 8 4 5 5 6 14 13 13 16 11 7 9 15 17 16 17 18 17
49 46 44 42 39 37 35 33 32 33 36 37 38 37 36 37 37 37 35 32 31 30 30 30 29 27 23 20 16 9 14 23 15 6 14 20 27 35 30 28 27 22 22 20 17 17 15 13 12 13 9 6 6 4 6 6 2 6 9 9 7 5 4 3 4 6 5 4 6 7 7 3 3 6 6 10 15 16 16 16 13 8 10 16 17 17 18 19
49 46 44 42 39 38 35 32 32 33 34 35 36 35 34 35 36 37 36 33 33 32 31 30 29 27 22 20 18 10 9 20 21 10 11 17 27 35 33 30 27 23 23 20 19 20 18 13 11 13 8 5 5 4 5 4 1 7 12 9 7 5 5 4 4 7 5 5 7 5 3 3 3 6 6 9 16 18 15 15 18 14 10 13 17 19 19 20
50 47 44 42 39 37 33 31 33 33 32 33 34 33 33 34 35 37 36 34 34 33 32 31 29 26 22 20 19 13 8 16 22 16 10 13 24 33 32 29 25 22 23 20 20 20 18 15 12 11 7 4 4 3 4 5 1 6 11 6 7 5 5 5 4 7 5 5 8 4 3 5 7 10 10 9 11 14 15 13 16 19 15 12 16 19 21 21
50 46 44 42 39 36 32 32 34 33 32 33 33 32 32 33 34 36 35 34 35 34 33 31 28 26 22 18 19 17 10 11 17 18 15 11 20 29 26 24 23 22 21 19 18 17 17 15 11 10 9 6 2 2 2 5 4 5 7 5 6 6 6 7 5 7 4 5 10 5 3 7 12 16 13 12 11 10 13 13 14 19 18 16 17 18 20 22
48 45 43 42 39 36 34 33 33 32 32 33 34 33 32 31 32 34 33 34 35 34 32 30 28 27 22 15 16 21 15 8 12 16 17 14 19 25 21 19 21 20 19 18 16 14 15 14 10 8 9 6 1 3 3 5 4 5 4 4 6 6 6 9 7 9 6 6 11 6 5 4 9 15 13 13 14 11 11 11 13 16 17 19 21 21 21 22
47 44 43 41 39 38 35 33 30 31 33 32 33 33 32 30 30 31 31 33 34 33 31 30 29 25 18 12 12 22 22 12 10 14 16 16 18 22 20 19 18 17 16 16 14 13 14 14 11 7 5 4 5 5 4 4 5 6 5 5 7 6 5 7 7 9 4 5 10 6 5 5 5 11 10 13 15 13 11 11 12 13 15 18 22 24 24 23
47 44 43 40 40 38 34 32 31 33 33 31 32 32 31 29 29 30 29 31 32 32 31 30 32 23 11 11 12 19 25 19 12 13 16 16 17 19 20 19 16 15 14 13 12 12 13 12 8 5 4 5 6 6 5 5 5 6 7 6 7 7 5 6 6 7 3 5 10 8 5 5 4 8 7 12 14 13 11 12 12 13 13 15 18 23 25 26
47 44 42 41 40 37 35 34 33 34 33 33 33 31 29 27 27 27 26 28 29 32 29 27 32 21 6 10 13 15 24 24 18 14 16 18 17 17 20 19 16 14 13 12 11 10 12 10 7 6 5 5 7 7 6 7 7 6 6 6 6 9 7 5 5 6 6 5 9 10 7 8 3 7 7 10 12 12 12 13 13 12 13 14 15 19 23 26
47 44 42 42 40 37 35 34 34 34 35 35 32 29 28 25 25 25 24 25 26 27 20 19 26 15 9 16 14 14 23 26 21 15 16 20 17 17 20 19 17 15 13 11 9 10 11 8 6 6 5 7 8 8 8 7 8 8 7 5 4 7 9 6 4 6 10 7 8 10 10 13 9 6 9 10 11 12 13 13 12 12 13 13 14 17 21 24
47 44 44 42 40 39 36 36 36 36 38 36 30 30 28 25 24 21 22 25 27 22 10 20 30 9 4 18 18 14 21 24 23 17 16 20 17 17 19 17 18 17 13 8 7 9 10 7 6 6 6 9 9 10 9 4 6 9 10 9 7 7 7 3 3 3 6 7 9 11 10 12 13 9 9 13 13 11 11 11 10 10 11 12 14 16 20 24
47 45 44 42 41 40 37 38 39 39 40 37 38 39 31 28 20 13 22 27 30 24 9 24 36 8 4 19 25 19 16 20 24 20 17 20 20 19 18 17 17 14 8 6 6 7 7 6 6 8 9 10 12 13 7 2 3 7 11 11 9 7 5 3 5 2 2 5 9 12 12 12 13 12 10 13 14 12 12 12 11 12 12 13 14 16 21 25
48 45 44 43 43 41 38 40 41 42 40 40 51 41 29 34 19 16 34 24 22 22 10 26 34 10 4 20 28 24 18 17 21 23 19 19 22 18 15 16 13 8 5 6 6 4 4 6 9 11 9 7 10 11 5 2 3 5 8 8 7 7 3 4 4 3 2 3 6 8 10 14 13 12 11 11 12 13 15 15 15 16 15 14 15 16 20 23
47 45 45 44 45 42 39 41 42 44 39 45 52 28 23 33 14 25 43 17 10 15 10 28 28 8 8 18 26 25 19 14 15 24 24 21 22 15 13 13 10 7 7 7 6 3 4 8 9 8 4 4 3 5 4 4 4 4 5 6 6 4 3 4 4 4 3 3 3 1 5 12 13 12 12 13 14 16 18 18 19 18 17 17 16 16 18 20
47 45 46 45 45 42 39 40 40 42 43 49 46 23 22 26 12 30 38 14 10 12 13 29 22 9 13 17 24 24 17 13 14 22 26 24 19 14 14 13 9 9 9 9 8 5 6 7 4 5 7 6 3 4 6 5 5 5 5 6 5 3 3 2 3 5 3 3 2 3 5 9 11 11 11 16 20 19 17 18 19 18 19 18 16 17 18 19
47 47 47 46 45 41 39 38 37 42 47 48 39 23 21 21 23 37 27 11 10 8 13 26 18 14 16 15 22 22 16 14 14 22 29 26 17 13 14 13 10 9 9 12 11 9 5 1 1 3 6 8 7 7 9 7 6 7 7 6 4 4 3 1 3 5 2 3 2 4 6 8 10 11 11 13 15 16 15 15 16 19 23 22 20 21 22 22
48 48 47 47 45 42 41 38 39 45 47 44 34 22 21 28 37 35 17 9 8 6 12 20 13 14 17 17 22 19 12 10 13 23 32 28 19 14 10 9 9 8 12 15 12 9 4 1 1 3 5 9 10 9 10 9 7 7 9 9 4 2 4 5 5 4 2 4 4 2 6 7 7 11 12 8 7 10 13 13 16 19 22 25 27 29 29 28
50 49 49 49 45 45 43 38 42 45 43 41 33 25 29 39 39 27 13 6 6 7 10 16 14 14 17 17 21 16 8 9 14 25 34 29 22 16 9 6 4 6 12 11 6 3 2 2 1 3 6 9 9 9 11 10 8 6 5 7 4 1 4 6 6 4 2 2 1 2 6 6 5 8 9 7 6 8 10 11 15 16 17 22 28 32 31 31
51 49 50 50 48 51 46 40 43 45 42 40 33 32 39 43 34 21 11 2 6 10 10 13 13 15 17 16 22 16 4 10 15 22 32 28 21 16 10 8 3 3 7 6 3 2 4 4 2 2 5 7 8 7 8 10 9 4 1 2 6 5 6 7 6 5 2 1 1 3 5 5 6 5 3 4 5 8 9 10 13 15 17 19 24 29 30 32
51 51 51 50 50 51 44 43 47 47 45 38 34 41 44 38 27 16 7 3 7 10 8 10 10 14 15 16 24 13 4 16 13 15 28 24 17 12 8 11 10 7 7 6 6 2 4 6 5 6 5 6 6 2 4 10 8 1 3 1 4 4 5 6 5 5 1 1 3 5 5 4 7 5 3 4 5 8 9 10 12 14 17 17 19 24 28 30
51 52 51 51 51 44 36 42 49 47 42 35 36 46 42 31 20 9 3 4 7 7 8 12 12 14 15 15 21 12 7 13 7 13 27 21 14 8 4 10 12 10 5 1 3 1 2 3 4 6 6 4 3 5 3 4 4 3 4 3 4 2 2 4 5 4 2 3 7 7 8 5 6 6 5 4 5 8 9 9 8 9 12 15 17 20 24 27
52 53 51 52 51 43 33 34 42 43 38 35 41 47 37 24 14 7 5 5 7 6 8 13 14 16 17 15 15 13 10 6 5 17 21 14 11 7 5 9 9 9 4 3 5 3 3 3 2 2 2 2 4 5 6 3 2 7 7 5 5 3 2 2 4 3 4 6 6 4 6 5 5 5 6 4 3 5 7 7 4 4 6 10 13 16 19 22
53 52 52 54 49 44 37 34 42 44 38 38 46 43 28 13 7 7 6 6 7 6 6 12 15 17 21 18 11 13 12 6 11 19 15 9 9 6 8 8 5 6 4 2 5 4 4 5 2 2 3 3 4 5 6 4 1 4 4 5 4 3 3 3 4 3 6 7 2 2 1 3 6 5 3 1 1 0 3 4 0 3 5 6 8 11 14 17
53 51 53 53 44 41 41 42 49 45 37 43 50 39 19 8 6 6 6 8 8 8 9 14 17 17 22 19 12 13 12 8 13 16 13 10 8 8 10 8 6 5 5 6 5 4 4 3 2 3 2 4 4 4 4 3 1 2 4 7 5 4 4 5 5 5 7 4 2 2 1 3 7 7 7 7 5 2 3 3 1 1 4 5 5 8 10 13
52 51 53 50 41 41 43 46 51 41 37 45 42 25 11 6 9 9 8 8 6 9 12 15 18 19 20 18 13 13 11 9 13 15 13 12 9 10 9 8 11 7 4 8 7 5 4 2 3 4 3 5 5 4 3 2 4 6 7 7 6 6 5 6 6 5 6 2 2 1 1 3 6 6 11 15 10 2 1 3 4 4 4 3 5 7 8 10
52 51 53 49 42 43 42 47 49 39 42 43 25 12 9 8 9 11 11 7 4 9 14 15 18 19 20 17 12 14 11 9 14 14 13 12 10 10 8 10 15 8 4 8 6 7 6 3 5 4 4 7 6 2 1 2 6 6 3 3 5 6 5 5 5 5 5 2 2 2 2 4 4 0 3 8 6 2 1 5 7 8 9 8 8 8 8 9
51 51 52 47 43 41 42 49 46 40 46 38 13 7 10 9 9 11 11 8 6 10 14 18 19 17 17 13 13 16 9 6 14 13 11 12 10 11 10 10 15 10 7 8 4 6 9 4 2 2 2 5 5 1 2 2 5 3 1 1 4 3 2 2 1 1 2 0 2 4 3 4 4 5 5 5 4 4 5 6 8 10 10 10 10 10 8 9
50 51 49 45 44 42 45 51 43 41 46 29 8 8 10 8 8 10 9 9 10 13 17 18 15 14 14 9 12 16 6 4 14 11 8 12 11 12 12 10 13 11 9 8 3 4 8 3 2 2 2 2 1 2 2 0 2 2 2 3 2 2 1 1 1 2 0 4 4 5 4 6 5 9 9 7 5 5 6 6 7 9 9 11 13 11 9 10
52 52 48 46 46 43 49 51 43 43 39 17 7 11 10 6 4 6 10 13 13 16 17 15 11 13 15 9 11 17 10 7 13 10 8 10 10 13 14 11 15 16 12 9 3 2 5 3 2 0 2 2 2 2 3 2 1 2 2 2 1 1 1 1 3 2 3 6 4 4 6 7 5 5 5 6 6 7 6 5 5 7 8 10 14 13 11 12
54 51 45 44 46 46 50 50 44 42 26 7 11 14 10 6 3 6 14 16 17 18 14 10 10 11 14 11 11 17 14 11 11 10 9 9 8 13 15 11 14 18 14 7 2 2 4 3 2 1 1 2 0 1 3 1 1 2 1 2 1 2 3 2 3 3 4 6 5 5 7 6 5 5 2 3 5 7 7 5 4 6 8 10 16 16 13 14
52 41 33 40 45 45 50 49 44 37 16 5 13 12 7 6 6 12 21 19 15 15 12 10 10 10 12 12 12 15 15 13 12 10 8 8 6 11 16 10 10 17 15 7 3 3 2 2 2 1 1 2 1 2 4 4 2 1 1 2 1 1 2 2 3 3 5 6 6 5 5 4 5 7 7 6 4 4 4 4 4 6 7 9 14 16 15 16
47 27 19 40 46 42 48 46 36 24 9 8 12 8 6 6 3 13 25 23 12 8 10 12 11 10 11 13 14 13 13 12 13 10 7 9 7 7 13 12 9 14 13 6 3 4 2 1 2 2 0 2 3 3 3 4 5 4 3 3 3 2 1 1 2 2 2 4 6 5 5 4 2 4 9 10 5 1 2 1 2 3 3 6 11 15 16 16
42 14 14 42 47 44 47 34 19 12 6 9 10 6 9 9 6 9 16 18 10 1 4 10 12 11 10 13 14 12 10 10 12 10 7 11 10 6 10 14 12 13 10 5 3 4 2 2 4 4 3 3 2 1 1 1 2 2 3 5 6 5 3 3 4 1 0 3 4 4 5 4 1 1 4 4 0 3 3 1 1 2 3 6 10 14 16 16
30 6 21 48 48 49 44 19 9 11 7 8 6 4 8 10 10 9 7 10 8 2 1 7 11 11 9 11 13 12 12 9 11 12 8 11 14 8 10 15 16 17 12 5 3 2 2 2 5 4 2 2 2 2 2 1 1 0 1 1 3 5 5 6 5 2 2 2 1 2 5 3 1 1 2 1 2 1 1 2 2 4 5 7 9 13 16 18
17 9 31 52 51 50 35 9 7 10 4 5 7 6 7 8 10 11 8 8 6 4 4 6 9 10 8 9 11 13 14 9 10 13 10 10 10 6 11 17 18 17 10 4 3 2 2 3 4 3 2 2 2 2 2 1 1 1 3 2 2 5 6 4 2 1 2 4 2 3 6 4 1 1 1 2 2 3 5 6 6 7 7 7 9 13 17 18
14 21 33 47 49 42 21 6 11 11 6 9 9 6 4 4 8 11 11 10 7 6 7 6 8 8 5 7 9 13 14 8 8 11 8 8 6 4 12 21 19 15 10 8 9 8 4 3 4 5 4 3 2 3 2 2 3 3 4 6 6 5 2 1 1 2 3 6 7 7 7 5 1 1 1 2 2 3 5 6 8 9 8 7 9 14 17 18
13 18 27 41 46 34 12 3 8 9 9 12 10 10 8 3 5 9 11 11 7 8 8 5 8 9 6 7 8 11 14 9 6 8 6 5 4 3 10 20 20 14 10 12 16 14 6 2 4 6 6 7 6 6 5 4 4 3 2 4 7 8 6 4 3 5 5 5 7 6 8 7 1 1 3 3 3 3 4 6 9 11 9 7 9 14 17 19
4 5 13 25 30 24 10 2 3 6 11 12 8 10 12 7 4 5 8 8 6 7 7 5 9 10 8 11 10 10 15 10 3 5 8 7 4 2 5 15 18 12 7 14 21 16 3 2 6 8 8 8 8 6 6 6 5 5 5 6 9 10 10 6 3 5 6 4 5 7 9 12 8 5 5 5 4 4 4 6 8 10 10 9 11 15 19 21
1 0 4 9 12 13 8 5 6 6 12 15 8 9 14 12 8 5 4 3 5 8 5 5 10 12 11 15 12 10 15 9 3 5 10 8 5 4 3 5 9 8 8 13 18 11 2 4 9 10 11 11 11 7 9 10 10 11 12 14 14 13 12 9 7 10 9 5 6 9 11 15 15 10 6 5 5 4 5 5 6 6 8 10 13 18 20 22
3 1 2 3 5 8 8 9 12 11 15 18 9 9 17 14 11 10 4 1 5 8 4 4 10 14 16 17 11 8 12 9 5 7 8 7 6 6 5 2 2 4 6 9 10 5 3 6 9 11 12 13 12 5 7 11 11 12 14 15 15 14 14 14 13 15 13 8 8 13 15 16 15 11 8 7 6 6 5 5 5 5 7 11 16 21 22 22
4 3 1 2 1 2 5 9 13 15 18 17 9 11 18 16 14 13 6 4 6 7 6 7 12 15 17 16 11 9 11 10 8 7 5 6 6 6 5 2 2 2 4 7 6 1 3 6 9 11 12 13 9 1 2 8 9 10 13 12 10 11 14 13 13 16 16 12 11 16 19 17 13 10 9 9 9 7 5 4 4 7 11 14 19 24 24 23
2 2 2 2 4 4 8 9 12 15 15 15 10 10 16 18 17 13 7 8 10 10 10 10 14 17 16 15 13 10 13 14 11 9 8 8 6 5 5 5 5 5 4 5 3 1 3 4 7 8 8 10 7 2 1 4 5 8 11 9 7 10 11 11 11 13 14 13 14 17 18 14 11 11 9 8 10 8 4 4 7 11 13 16 20 25 26 25
3 3 4 2 3 5 6 6 8 11 12 13 11 10 14 18 18 13 6 3 5 9 11 12 15 15 13 16 16 12 14 13 9 14 17 12 10 10 7 5 9 8 4 3 4 2 2 1 4 5 6 8 8 7 5 3 1 4 6 5 8 10 9 10 12 13 13 13 15 16 13 11 11 13 11 10 11 10 8 10 13 14 14 16 21 27 30 29
5 4 4 2 2 4 5 5 6 7 9 12 11 11 13 15 16 13 7 1 1 3 8 11 14 12 10 15 15 10 11 9 6 17 21 11 10 12 9 12 18 14 7 5 3 4 6 4 4 6 7 8 8 8 6 5 1 4 5 8 11 11 11 12 13 14 16 14 12 12 11 12 14 14 13 12 10 11 13 17 17 18 19 21 24 30 35 35
Wind_Direction
206 207 210 211 209 209 207 210 214 214 217 218 217 218 217 214 213 214 214 213 213 214 215 217 217 217 220 224 227 230 231 235 234 233 235 228 217 215 222 214 205 216 235 249 252 255 299 289 270 260 253 228 226 220 213 222 216 205 221 221 222 220 198 171 185 161 122 136 147 163 175 179 163 171 184 183 192 170 162 174 186 197 208 226 185 162 163 183
204 205 209 209 210 209 208 210 213 214 217 218 217 217 216 213 211 213 215 214 213 213 214 217 217 218 218 220 224 228 232 236 239 238 231 223 217 213 224 220 205 208 229 242 250 256 288 281 272 263 240 227 227 215 209 215 204 209 237 224 228 214 122 28 151 115 71 158 157 166 180 187 170 168 177 185 192 186 180 189 194 193 202 216 204 176 173 181
203 203 206 207 208 208 209 211 212 213 216 218 216 215 215 212 209 212 214 213 213 212 214 217 219 220 217 218 220 223 226 232 238 235 224 218 217 210 212 213 208 213 227 242 251 251 272 267 269 261 239 234 216 200 202 204 206 214 239 233 219 138 96 36 48 78 38 140 157 166 177 190 171 161 175 195 193 192 203 196 191 194 190 201 201 184 183 183
203 202 203 203 204 205 208 210 211 211 213 216 216 214 213 210 209 211 213 213 211 211 213 216 218 218 217 217 216 217 217 226 238 230 219 214 216 206 195 195 198 209 223 244 258 252 268 260 256 253 244 238 198 192 200 193 198 196 212 256 5 111 121 100 74 87 102 141 164 165 169 183 166 161 177 194 200 199 214 206 196 201 186 189 196 188 191 188
202 201 202 200 200 202 207 208 209 210 211 214 214 212 210 209 210 210 212 211 207 207 208 210 212 211 211 209 208 207 201 215 246 232 221 213 214 201 190 191 191 203 220 239 257 250 254 250 252 251 244 234 189 196 203 187 191 199 211 339 10 347 100 111 115 119 125 144 160 159 173 177 158 175 188 196 210 192 205 206 195 200 188 190 197 188 190 192
202 200 200 199 198 200 207 207 208 209 209 211 212 210 207 208 210 209 210 208 201 200 200 201 200 199 197 197 201 193 186 194 292 236 221 212 208 192 185 190 193 211 222 229 246 246 237 237 240 225 232 232 199 201 189 179 197 219 200 118 28 359 57 105 145 147 125 137 165 166 177 169 164 193 198 202 213 151 154 187 186 186 178 189 200 192 190 195
202 201 199 199 198 200 205 206 207 209 208 209 210 208 204 206 208 208 208 202 194 194 193 194 191 189 189 191 196 187 198 218 333 227 214 209 199 180 178 185 191 219 229 222 233 236 224 222 225 221 231 233 208 200 174 170 197 230 211 139 102 30 66 106 148 168 148 147 168 167 174 176 189 193 189 207 215 207 182 179 191 194 182 190 202 200 199 200
198 200 199 198 198 201 205 206 206 206 206 206 207 206 203 205 207 206 206 197 190 191 190 189 186 186 189 189 185 184 210 216 200 188 201 205 194 177 182 193 196 224 233 222 220 224 220 213 213 216 229 243 241 208 173 171 198 226 212 128 123 56 84 115 141 166 163 182 161 164 186 186 196 182 179 211 212 221 227 190 187 202 198 202 208 208 209 209
195 198 199 197 198 201 203 204 205 206 206 205 205 205 203 204 206 204 204 194 187 191 188 186 187 187 190 191 182 193 218 205 188 189 190 198 194 181 186 201 206 223 230 224 215 216 221 218 211 211 233 260 264 240 185 194 206 210 172 123 131 92 99 126 137 154 161 187 176 187 194 177 196 202 221 219 207 213 224 216 194 198 202 204 208 214 215 216
195 197 197 196 196 199 201 201 205 205 206 206 205 204 201 203 205 203 201 192 187 190 188 186 186 188 190 190 188 206 220 199 192 196 184 195 196 184 184 203 212 218 222 222 215 211 216 221 211 213 242 274 258 251 217 223 223 166 138 118 129 109 112 145 142 153 151 157 184 202 191 164 190 213 231 201 196 212 221 222 214 199 201 202 203 211 216 219
195 196 195 195 195 197 199 199 203 203 204 204 203 203 199 201 202 201 199 191 188 189 187 186 186 189 192 192 197 207 209 201 202 198 174 189 194 185 185 205 216 215 215 218 216 210 211 219 211 207 231 267 223 221 229 233 345 144 138 115 124 124 127 153 148 159 162 154 183 209 180 163 166 214 228 175 192 212 212 219 221 213 205 205 204 207 213 217
194 195 194 195 195 195 195 197 200 200 202 200 198 198 197 201 200 198 197 190 189 190 187 187 188 190 193 199 209 211 209 209 207 204 191 183 187 187 193 209 215 212 211 216 218 212 213 215 210 207 220 256 197 172 206 192 157 162 164 147 145 157 160 161 149 167 188 168 173 193 201 196 199 216 217 188 199 207 200 210 220 218 211 208 211 211 213 215
192 193 194 194 193 192 190 193 198 199 199 196 192 192 195 200 200 197 194 190 190 191 189 188 190 191 192 203 212 213 214 209 205 207 210 196 181 187 197 206 207 209 210 214 217 216 220 213 206 215 232 264 237 154 161 148 144 177 203 212 164 188 194 166 150 169 189 162 170 196 244 212 206 208 198 192 204 194 195 205 213 220 214 210 217 217 218 218
190 191 193 192 191 189 187 190 197 198 196 192 188 190 193 196 197 194 190 190 191 190 189 188 189 190 195 208 212 212 210 190 195 198 201 198 179 180 191 197 198 202 204 208 212 214 217 207 203 222 234 253 219 155 144 137 171 178 206 239 196 212 182 154 155 172 177 158 173 205 261 234 185 184 181 191 200 187 194 204 207 216 214 216 222 222 224 223
190 191 191 191 190 188 187 189 194 196 192 186 185 188 191 192 192 189 185 188 190 187 186 186 186 185 196 217 217 216 213 203 202 192 189 190 178 178 188 191 189 194 198 204 207 208 205 197 203 214 206 202 172 176 173 162 197 188 192 211 211 222 160 144 162 178 182 155 178 206 245 250 139 146 169 191 196 191 200 210 207 209 210 217 225 226 227 227
190 189 188 189 189 187 185 185 189 192 186 180 181 185 186 186 184 182 181 183 184 183 181 182 184 179 194 217 210 217 215 210 204 191 186 186 180 179 183 182 181 187 191 197 201 198 193 188 196 191 157 175 188 196 188 179 201 200 210 208 198 207 173 148 166 186 189 149 187 217 254 260 130 128 172 194 193 194 204 212 209 209 209 213 222 228 229 228
188 187 187 188 187 184 181 183 186 184 181 177 179 183 180 177 176 172 172 176 177 176 175 180 183 182 222 220 203 208 209 205 197 188 182 180 180 179 178 175 175 181 179 183 186 177 178 174 177 183 175 200 208 203 197 197 201 192 214 224 195 202 198 170 157 176 182 174 203 214 241 262 189 133 172 194 193 197 209 216 215 215 214 214 217 225 229 229
186 184 185 186 184 181 178 181 182 180 179 178 178 179 172 165 162 159 160 163 162 160 164 177 178 185 237 211 199 201 205 201 189 185 181 176 178 179 180 176 170 171 161 160 168 167 172 169 179 198 196 208 211 206 204 206 208 192 195 216 196 210 222 206 156 158 180 202 219 205 219 249 244 175 168 180 186 195 210 219 222 224 221 217 216 223 229 231
184 184 183 183 182 179 177 179 178 176 177 177 175 162 149 141 142 148 157 157 156 157 170 183 178 182 250 192 189 195 203 199 186 184 182 175 174 176 181 176 168 163 150 151 172 175 176 171 191 214 203 201 207 213 215 227 227 195 184 208 213 210 223 201 98 119 186 203 216 215 222 240 244 230 190 177 182 195 207 214 220 226 226 222 221 226 231 235
183 183 182 181 181 177 176 178 175 174 177 174 159 145 139 142 137 151 170 170 173 174 179 180 181 190 53 169 185 190 186 188 188 186 183 178 171 167 171 167 160 160 158 163 169 176 185 189 199 211 212 206 206 214 224 330 281 207 192 212 223 216 211 129 90 88 218 220 216 222 236 245 246 246 222 183 179 198 211 215 223 226 227 227 225 228 234 239
182 182 180 180 179 176 176 178 177 178 178 166 153 148 157 159 151 174 172 177 190 185 178 174 179 194 127 167 184 184 168 168 186 189 186 180 169 162 162 161 160 166 160 125 122 148 190 213 213 209 216 210 203 211 224 318 291 245 216 217 225 225 202 92 90 119 166 243 225 218 242 252 249 250 241 204 190 210 217 218 226 228 229 230 226 228 235 241
181 180 180 179 177 176 177 177 180 182 173 162 159 157 170 168 172 176 162 150 183 180 174 170 173 185 168 174 178 175 165 157 179 188 185 176 173 172 165 170 179 164 140 121 123 144 197 221 214 187 154 103 146 193 213 246 259 259 239 229 232 218 139 106 109 123 155 229 224 185 258 260 255 252 245 230 225 229 225 224 229 231 232 233 229 228 231 235
180 180 178 178 177 176 177 177 181 182 170 167 170 164 166 177 184 163 150 112 136 150 154 166 169 164 156 170 173 167 168 164 167 182 183 176 179 183 170 177 184 152 153 169 169 175 198 217 199 129 124 131 149 186 203 228 241 238 233 234 232 169 166 209 156 139 169 236 316 344 292 271 264 255 243 234 233 235 230 227 230 231 233 232 228 228 227 229
179 179 177 177 177 175 176 173 176 180 172 173 178 165 160 169 154 151 140 99 129 132 157 168 171 171 164 171 176 173 176 175 170 181 184 177 176 178 173 179 174 155 173 184 186 194 194 214 39 126 160 183 191 192 204 218 227 227 225 237 241 172 180 28 117 145 171 218 251 310 288 274 257 246 242 229 223 227 223 220 225 229 233 233 230 231 231 232
178 177 176 176 176 175 171 168 174 177 175 178 178 160 154 155 149 147 133 108 138 128 163 173 170 175 177 176 178 177 176 174 174 184 184 179 176 171 169 177 176 180 185 183 191 203 196 56 99 158 174 198 204 200 205 214 226 224 213 221 250 206 161 105 126 164 227 219 196 239 260 268 248 234 235 213 190 213 210 210 224 227 231 235 235 235 236 237
177 175 175 175 175 171 165 167 176 175 176 183 174 153 153 154 149 147 136 126 161 142 159 175 173 177 183 176 168 164 175 184 180 183 182 181 181 172 162 166 185 200 180 173 192 205 131 96 117 157 176 194 209 216 205 205 227 232 213 207 200 169 156 143 161 192 241 232 138 221 243 262 251 226 221 199 191 214 205 209 226 223 221 228 234 236 235 236
177 175 175 176 174 170 166 169 176 175 180 184 166 152 155 154 153 155 145 147 183 157 154 172 176 179 179 174 166 160 168 168 168 181 181 180 183 183 181 170 160 181 153 144 187 161 113 124 105 144 175 187 206 224 199 197 225 232 12 215 180 174 178 167 182 213 244 23 107 212 235 267 264 235 172 164 207 227 215 218 226 220 214 217 227 233 233 234
176 176 176 179 175 171 171 171 174 177 179 174 158 156 157 156 161 164 159 185 161 148 153 166 173 171 164 166 174 175 136 152 159 182 183 182 182 189 205 187 171 154 145 163 194 161 110 153 160 149 167 194 201 255 178 189 221 224 35 325 166 177 195 180 200 227 262 339 232 199 181 244 261 240 165 163 230 243 232 230 227 220 214 210 219 229 232 234
176 177 178 179 174 169 173 175 177 177 172 164 157 159 158 158 163 163 191 190 143 136 157 160 165 168 159 165 181 186 153 163 173 171 178 184 181 187 216 184 166 138 123 179 173 95 64 156 160 153 173 190 144 21 10 209 221 150 129 95 90 93 172 183 221 230 195 246 249 202 180 222 264 244 205 182 230 241 240 238 228 213 204 201 212 225 231 233
176 178 180 177 172 170 172 174 175 170 162 159 159 158 157 158 162 170 203 186 150 146 148 156 167 170 165 169 184 187 172 169 131 149 168 180 178 180 137 136 132 123 111 39 87 80 71 103 79 112 150 141 104 54 19 358 116 141 145 117 100 114 133 183 227 226 220 235 244 188 177 228 267 246 221 201 209 227 237 239 205 148 169 191 209 221 228 231
176 178 181 176 172 173 170 170 171 164 158 159 158 157 156 156 175 188 174 145 142 144 140 158 166 168 174 178 179 182 178 153 139 151 162 172 172 166 141 132 113 123 153 148 116 91 90 114 117 88 108 128 111 80 42 21 115 156 165 151 144 150 144 190 194 195 233 233 210 97 134 235 240 238 233 235 47 127 237 248 194 140 166 180 202 216 224 228
177 179 180 174 173 176 174 172 167 161 161 162 159 159 157 154 200 203 155 142 154 169 175 171 168 170 180 182 174 174 173 152 160 165 163 170 176 173 176 179 162 151 178 179 156 130 116 113 123 105 134 189 165 115 75 31 268 238 195 174 190 194 177 207 198 193 229 227 93 86 104 238 245 250 254 268 288 277 230 233 271 193 163 150 180 215 227 230
176 179 178 176 176 177 177 171 163 159 164 162 159 163 164 161 192 196 168 161 160 161 167 169 169 169 175 180 175 170 168 159 172 176 170 174 178 182 201 197 177 185 192 170 159 156 153 121 156 153 168 208 208 170 145 171 196 207 200 189 204 202 193 210 203 206 223 207 77 162 190 256 264 256 244 252 264 272 163 204 208 203 210 214 210 225 236 236
176 177 177 180 181 177 174 167 162 163 164 160 158 171 178 179 188 192 182 171 142 150 158 161 163 165 174 184 176 164 168 165 171 177 175 178 181 185 202 193 185 192 161 161 166 173 185 189 176 168 148 177 198 204 99 158 180 197 215 215 217 217 222 216 208 220 212 137 100 186 200 227 235 19 230 247 266 285 213 228 228 230 242 248 232 232 242 242
173 177 179 182 181 175 170 167 166 167 162 158 162 183 182 187 187 191 182 156 146 155 153 154 157 164 177 185 172 169 175 166 171 179 178 183 191 188 189 187 188 184 157 165 167 176 197 204 133 65 70 161 173 146 24 120 173 190 333 255 237 239 234 207 226 240 197 79 168 190 240 248 260 314 284 233 238 243 227 224 231 235 242 243 234 234 241 238
171 176 181 183 180 172 169 170 170 168 164 161 169 186 193 198 188 191 168 140 154 153 144 150 158 167 175 177 173 175 182 164 174 182 185 192 201 193 188 184 184 187 178 171 143 165 191 186 72 75 79 101 111 91 48 71 173 170 182 197 227 336 45 149 193 85 95 275 228 176 237 259 266 284 263 217 199 215 205 198 211 218 225 232 233 234 235 229
170 175 181 183 179 170 169 173 172 168 168 172 187 186 198 203 194 187 147 131 145 147 144 156 169 176 176 174 178 177 168 159 175 185 186 192 204 197 193 186 180 189 193 182 169 193 180 134 50 85 117 72 12 88 88 43 79 130 180 190 114 353 3 231 239 197 191 249 240 177 222 244 237 251 240 200 212 227 206 181 187 199 208 225 231 231 230 221
169 173 180 184 178 170 170 175 174 170 172 197 201 196 203 187 142 148 141 131 142 152 157 164 169 184 185 174 176 176 167 164 177 186 182 185 201 194 190 186 179 187 191 179 178 204 177 147 67 8 79 100 49 151 130 86 57 111 272 317 24 211 216 198 221 230 216 234 248 213 218 237 231 227 229 186 215 234 218 177 177 204 206 216 225 225 220 212
166 167 177 185 178 170 172 175 174 173 177 215 203 202 194 157 130 148 148 140 148 161 169 169 165 186 193 178 171 172 174 177 174 178 188 186 187 185 186 181 173 186 189 178 180 171 155 192 147 79 12 104 112 219 183 167 142 104 314 328 23 249 241 204 204 238 235 235 250 230 209 223 220 220 234 234 232 239 208 171 190 222 213 207 217 217 210 205
163 159 175 182 176 171 172 171 170 173 190 215 204 194 157 132 126 162 156 149 153 170 177 175 168 175 184 179 171 168 178 182 173 182 200 181 174 189 194 185 165 179 181 163 171 162 116 253 159 118 283 160 168 213 197 173 165 171 191 182 181 206 294 274 239 248 247 240 250 247 240 243 210 200 219 228 241 21 91 132 225 251 232 213 215 212 205 202
161 152 173 175 174 170 166 162 166 180 208 214 207 189 155 132 131 166 156 148 147 143 191 176 170 171 173 174 171 164 174 183 179 190 197 182 190 211 201 190 165 155 157 143 170 172 159 196 146 140 183 181 161 68 38 83 137 162 193 189 195 197 176 213 222 180 116 256 254 264 268 261 133 133 223 221 266 56 63 26 297 305 278 242 228 213 201 199
162 149 169 172 172 168 160 154 182 191 207 207 182 137 140 136 147 165 151 143 144 105 156 168 168 169 169 174 172 161 167 181 184 190 198 199 204 201 187 183 159 149 156 157 154 120 67 107 118 123 160 141 87 72 85 105 100 4 255 218 220 209 198 217 223 184 182 227 317 306 279 269 92 34 300 338 20 18 341 301 283 293 280 255 239 214 198 198
160 128 162 171 171 166 161 155 188 194 220 170 129 104 130 140 152 158 152 156 156 139 150 159 163 167 170 176 173 165 168 176 187 193 198 202 203 180 170 171 155 152 162 143 131 130 86 116 121 106 91 84 89 103 96 105 154 223 232 212 224 218 210 230 253 223 192 185 187 243 251 248 154 74 316 306 303 281 275 267 258 267 271 254 232 210 199 198
128 127 154 170 170 168 170 171 179 192 194 160 149 136 132 130 151 160 167 173 168 161 164 160 162 165 162 167 171 171 172 173 194 203 203 192 184 133 158 165 158 161 177 175 170 169 162 157 148 142 144 147 157 163 176 196 190 209 216 199 203 210 196 87 309 269 242 195 199 229 250 250 198 98 266 260 257 261 258 252 247 252 262 252 222 208 200 195
122 130 152 166 171 179 200 199 177 187 169 163 167 157 143 124 158 167 168 165 160 167 166 151 154 148 130 152 168 176 182 187 194 202 205 181 161 104 157 168 170 176 186 178 166 158 161 183 165 171 178 178 190 200 189 173 172 190 201 183 195 204 198 187 217 241 234 194 193 222 254 260 242 125 213 214 212 234 232 232 240 245 253 245 218 208 198 189
134 124 146 162 176 196 228 286 189 177 159 163 169 164 161 155 151 166 167 161 156 160 147 128 149 145 139 165 172 179 191 195 171 183 194 173 139 73 157 172 178 176 154 159 158 148 136 224 183 201 215 206 208 200 154 135 153 182 191 193 201 207 205 208 233 229 222 215 207 218 244 258 256 222 199 195 205 223 217 216 229 242 250 236 210 202 196 189
17 70 143 152 172 198 228 250 216 187 168 170 167 170 171 158 140 164 193 181 161 156 130 116 159 163 164 173 175 183 189 182 118 172 187 168 114 76 102 160 175 153 129 156 161 148 147 194 182 201 226 232 232 209 167 166 182 193 198 204 207 204 197 199 217 224 221 227 233 225 230 247 255 242 205 187 198 221 230 220 216 237 252 234 206 198 197 193
16 55 177 169 168 187 200 204 199 185 173 174 169 167 172 162 153 170 189 133 162 170 155 149 179 181 175 173 172 175 181 180 174 182 175 151 123 109 102 72 106 128 137 161 164 155 189 189 181 193 219 241 248 234 177 186 200 205 207 210 208 200 195 197 213 225 223 222 239 239 233 239 250 248 230 215 208 206 208 205 202 220 242 231 209 200 199 197
41 52 169 182 93 150 134 146 176 184 176 175 175 174 175 170 166 168 156 129 163 193 194 183 189 186 177 175 173 166 175 183 185 180 147 127 134 132 131 126 119 145 164 163 159 194 221 190 182 187 209 232 240 257 151 200 211 216 219 217 197 186 194 201 214 227 227 227 237 245 246 247 250 254 252 240 222 209 193 185 213 234 242 235 215 205 204 202
78 65 139 104 60 95 103 117 165 184 182 180 182 181 181 179 171 161 148 156 170 186 197 192 185 183 178 178 181 182 187 189 183 167 141 130 149 165 165 163 149 148 171 164 136 346 246 193 165 169 208 227 213 126 111 217 227 224 224 219 181 173 191 205 220 231 232 234 241 248 255 259 259 261 258 230 209 204 198 216 244 247 244 235 220 212 210 207
120 112 145 134 79 127 133 132 164 177 183 189 186 177 184 187 175 154 132 163 170 173 190 190 176 174 177 182 192 200 190 187 181 165 159 155 169 177 174 159 144 139 160 165 131 137 216 188 126 152 209 225 202 190 181 136 1 259 238 207 179 178 187 199 213 221 219 225 238 246 253 257 258 259 251 224 203 195 198 219 237 245 245 238 228 219 215 210
144 124 140 134 83 137 152 149 161 172 182 192 188 174 179 186 175 154 135 131 31 144 184 184 166 159 173 187 197 194 162 137 126 162 165 154 147 150 143 147 149 147 154 162 158 177 178 171 156 166 205 225 205 192 169 128 144 254 231 202 194 193 199 205 212 218 216 216 227 237 242 246 251 252 247 236 209 193 207 218 226 239 244 242 237 227 220 215